Simultaneous Nadir Overpasses (SNOs) Predictions

Prediction of SNOs between FY3D and TERRA Satellite Orbit:

Table of predicted SNOs for the next 14.0 days since TLE Epoch: 2/1/2020
Index Date (FY3D) Time (FY3D) Lat,Lon (FY3D) SZA (FY3D ) Date (TERRA) Time (TERRA) Lat,Lon (TERRA) SZA (TERRA ) Distance(km) Time Diff (sec)
1 02/02/2020 07:03:32 68.83, 73.18 85.72 02/02/2020 07:04:02 68.84, 73.23 85.72 2.18 30
2 02/02/2020 07:54:12 -68.68,-119.30 94.45 02/02/2020 07:53:33 -68.67,-119.35 94.46 2.42 39
3 02/04/2020 23:19:57 68.84,-170.93 84.94 02/04/2020 23:20:35 68.82,-170.93 84.92 1.90 38
4 02/05/2020 00:10:38 -68.73, -3.47 95.18 02/05/2020 00:10:05 -68.71, -3.43 95.20 2.70 33
5 02/07/2020 15:36:22 68.84, -55.04 84.13 02/07/2020 15:37:07 68.86, -55.02 84.13 1.56 45
6 02/07/2020 16:27:03 -68.73, 112.43 96.00 02/07/2020 16:26:37 -68.75, 112.48 95.98 3.03 26
7 02/10/2020 07:52:46 68.85, 60.86 83.28 02/10/2020 07:53:39 68.83, 60.81 83.26 2.45 53
8 02/10/2020 08:43:27 -68.73,-131.67 96.86 02/10/2020 08:43:09 -68.73,-131.68 96.85 0.61 18
9 02/10/2020 09:33:57 67.88, 36.75 82.26 02/10/2020 09:32:49 67.89, 34.96 82.33 74.95 68
10 02/13/2020 00:09:11 68.86, 176.75 82.41 02/13/2020 00:10:11 68.86, 176.72 82.41 1.55 60
11 02/13/2020 00:59:53 -68.78, -15.84 97.68 02/13/2020 00:59:41 -68.77, -15.77 97.70 3.10 12
12 02/13/2020 01:50:27 68.15, 152.30 81.66 02/13/2020 01:49:16 68.20, 151.19 81.75 46.51 71




NCC Satellite Simultaneous Nadir Overpasses (SNOs) Prediction Service
